York, NE

9:06 PM CDT on August 29, 2016 (GMT -0500)
York Municipal

Weather History for KJYR - March, 2013

Change the Weather History Date:

Saturday, March 23, 2013

  Actual Average Record
Temperature  
Mean Temperature 29 °F -  
Max Temperature 32 °F 52 °F 86 °F (1967)
Min Temperature 26 °F 29 °F 6 °F (1965)
Degree Days  
Heating Degree Days 36    
Moisture  
Dew Point 27 °F    
Average Humidity 90    
Maximum Humidity 100    
Minimum Humidity 80    
Precipitation  
Precipitation 0.00 in - - ()
Sea Level Pressure  
Sea Level Pressure 30.04 in    
Wind  
Wind Speed 10 mph (NE)    
Max Wind Speed 24 mph    
Max Gust Speed 34 mph    
Visibility 5 miles    
Events Rain , Snow    
Averages and records for this station are not official NWS values.
T = Trace of Precipitation, MM = Missing Value Source: NWS Daily Summary

Daily Weather History Graph

Daily Weather History Graph

Search for Another Location

Airport or City:

Trip Planner

Search our weather history database for the weather conditions in past years. The results will help you decide how hot, cold, wet, or windy it might be!

Date:

Astronomy

Mar. 23, 2013 Rise Set
Actual Time 7:28 AM CDT 7:46 PM CDT
Civil Twilight 7:00 AM CDT 8:13 PM CDT
Nautical Twilight 6:28 AM CDT 8:45 PM CDT
Astronomical Twilight 5:55 AM CDT 9:18 PM CDT
Moon 4:12 PM CDT (3/23) 5:06 AM CDT (3/23)
Length of Visible Light 13h 12m
Length of Day
12h 17m
Waxing Gibbous, 85% of the Moon is Illuminated
Mar 23
Waxing Gibbous
Mar 27
Full
Apr 2
Last Quarter
Apr 10
New
Apr 18
First Quarter

Hourly Weather History & Observations

Time (CDT) Temp. Windchill Dew Point Humidity Pressure Visibility Wind Dir Wind Speed Gust Speed Precip Events Conditions
12:15 AM 32.0 °F 27.5 °F 28.4 °F 87% 30.00 in 10.0 mi NE 4.6 mph - N/A   Overcast
12:35 AM 32.0 °F 28.7 °F 28.4 °F 87% 30.00 in 7.0 mi East 3.5 mph - N/A   Overcast
12:55 AM 30.2 °F 24.3 °F 28.4 °F 93% 29.99 in 7.0 mi ENE 5.8 mph - N/A   Overcast
1:15 AM 30.2 °F 26.7 °F 28.4 °F 93% 30.00 in 9.0 mi East 3.5 mph - N/A   Overcast
1:35 AM 30.2 °F 24.3 °F 26.6 °F 86% 30.01 in 10.0 mi ENE 5.8 mph - N/A   Overcast
1:55 AM 30.2 °F 25.4 °F 26.6 °F 86% 30.02 in 10.0 mi East 4.6 mph - N/A   Overcast
2:15 AM 30.2 °F 24.3 °F 26.6 °F 86% 30.02 in 10.0 mi East 5.8 mph - N/A   Overcast
2:35 AM 30.2 °F 25.4 °F 24.8 °F 80% 30.02 in 10.0 mi East 4.6 mph - N/A   Overcast
2:55 AM 30.2 °F 25.4 °F 24.8 °F 80% 30.01 in 10.0 mi ENE 4.6 mph - N/A   Overcast
3:15 AM 28.4 °F 21.2 °F 24.8 °F 86% 29.99 in 10.0 mi ENE 6.9 mph - N/A   Overcast
3:35 AM 28.4 °F 22.2 °F 24.8 °F 86% 30.00 in 10.0 mi NE 5.8 mph - N/A   Overcast
3:55 AM 30.2 °F 25.4 °F 24.8 °F 80% 30.02 in 10.0 mi NNE 4.6 mph - N/A   Overcast
4:15 AM 28.4 °F 24.6 °F 24.8 °F 86% 30.01 in 10.0 mi NNE 3.5 mph - N/A   Overcast
4:35 AM 28.4 °F 22.2 °F 24.8 °F 86% 30.02 in 10.0 mi NE 5.8 mph - N/A   Overcast
4:55 AM 28.4 °F 23.3 °F 24.8 °F 86% 30.03 in 10.0 mi NNE 4.6 mph - N/A   Overcast
5:15 AM 28.4 °F 21.2 °F 24.8 °F 86% 30.02 in 10.0 mi NE 6.9 mph - N/A   Overcast
5:35 AM 28.4 °F 21.2 °F 24.8 °F 86% 30.02 in 10.0 mi ENE 6.9 mph - N/A   Overcast
5:55 AM 28.4 °F 20.4 °F 24.8 °F 86% 30.02 in 10.0 mi ENE 8.1 mph - N/A   Overcast
6:15 AM 28.4 °F 20.4 °F 24.8 °F 86% 30.02 in 10.0 mi NE 8.1 mph - N/A   Overcast
6:35 AM 28.4 °F 20.4 °F 24.8 °F 86% 30.03 in 10.0 mi NE 8.1 mph - N/A   Overcast
6:55 AM 28.4 °F 19.7 °F 24.8 °F 86% 30.04 in 10.0 mi NE 9.2 mph - N/A   Overcast
7:15 AM 28.4 °F 19.7 °F 24.8 °F 86% 30.03 in 10.0 mi NE 9.2 mph - N/A   Overcast
7:35 AM 28.4 °F 19.1 °F 24.8 °F 86% 30.03 in 10.0 mi NE 10.4 mph - N/A   Overcast
7:55 AM 28.4 °F 19.7 °F 24.8 °F 86% 30.03 in 10.0 mi NE 9.2 mph - N/A   Overcast
8:15 AM 28.4 °F 21.2 °F 24.8 °F 86% 30.05 in 10.0 mi NE 6.9 mph - N/A   Overcast
8:35 AM 28.4 °F 19.1 °F 24.8 °F 86% 30.06 in 10.0 mi NNE 10.4 mph - N/A   Overcast
8:55 AM 28.4 °F 19.7 °F 24.8 °F 86% 30.07 in 10.0 mi NE 9.2 mph - N/A   Overcast
9:15 AM 28.4 °F 21.2 °F 24.8 °F 86% 30.08 in 8.0 mi ENE 6.9 mph - N/A   Mostly Cloudy
9:35 AM 28.4 °F 19.7 °F 24.8 °F 86% 30.08 in 1.2 mi ENE 9.2 mph - N/A Snow Light Snow
9:55 AM 28.4 °F 19.1 °F 26.6 °F 93% 30.08 in 1.2 mi ENE 10.4 mph - N/A Snow Light Snow
10:15 AM 28.4 °F 19.1 °F 26.6 °F 93% 30.08 in 1.5 mi ENE 10.4 mph - N/A Snow Light Snow
10:35 AM 28.4 °F 18.5 °F 26.6 °F 93% 30.08 in 2.0 mi NE 11.5 mph - N/A Snow Light Snow
10:55 AM 30.2 °F 21.3 °F 28.4 °F 93% 30.08 in 2.5 mi NE 10.4 mph - N/A   Partly Cloudy
11:15 AM 30.2 °F 21.3 °F 28.4 °F 93% 30.08 in 1.5 mi ENE 10.4 mph - N/A Snow Light Snow
11:35 AM 30.2 °F 19.3 °F 28.4 °F 93% 30.07 in 4.0 mi ENE 15.0 mph - N/A   Partly Cloudy
11:55 AM 32.0 °F 21.6 °F 28.4 °F 87% 30.06 in 2.5 mi NE 15.0 mph - N/A   Partly Cloudy
12:15 PM 32.0 °F 22.1 °F 28.4 °F 87% 30.06 in 3.0 mi NE 13.8 mph - N/A   Partly Cloudy
12:35 PM 32.0 °F 22.5 °F 28.4 °F 87% 30.06 in 2.5 mi NE 12.7 mph - N/A   Scattered Clouds
12:55 PM 32.0 °F 21.6 °F 28.4 °F 87% 30.05 in 4.0 mi NE 15.0 mph - N/A   Scattered Clouds
1:15 PM 32.0 °F 20.5 °F 28.4 °F 87% 30.05 in 3.0 mi NE 18.4 mph 23.0 mph N/A   Mostly Cloudy
1:35 PM 32.0 °F 21.2 °F 28.4 °F 87% 30.05 in 3.0 mi NE 16.1 mph 25.3 mph N/A   Scattered Clouds
1:55 PM 32.0 °F 22.1 °F 28.4 °F 87% 30.04 in 3.0 mi NE 13.8 mph - N/A   Scattered Clouds
2:15 PM 32.0 °F 21.2 °F 28.4 °F 87% 30.04 in 2.5 mi NNE 16.1 mph 19.6 mph N/A   Mostly Cloudy
2:35 PM 32.0 °F 20.8 °F 28.4 °F 87% 30.03 in 1.8 mi NE 17.3 mph - N/A   Mostly Cloudy
2:55 PM 32.0 °F 22.1 °F 30.2 °F 93% 30.03 in 1.2 mi NE 13.8 mph - N/A   Scattered Clouds
3:15 PM 32.0 °F 21.2 °F 28.4 °F 87% 30.02 in 1.5 mi NNE 16.1 mph 23.0 mph N/A   Mostly Cloudy
3:35 PM 32.0 °F 21.2 °F 30.2 °F 93% 30.02 in 1.2 mi NNE 16.1 mph - N/A   Mostly Cloudy
3:55 PM 32.0 °F 21.6 °F 28.4 °F 87% 30.03 in 1.0 mi NE 15.0 mph - N/A Snow Light Snow
4:15 PM 32.0 °F 21.6 °F 30.2 °F 93% 30.03 in 1.0 mi NNE 15.0 mph 24.2 mph N/A Snow Light Snow
4:35 PM 32.0 °F 21.6 °F 30.2 °F 93% 30.03 in 1.0 mi NE 15.0 mph - N/A Snow Light Snow
4:55 PM 30.2 °F 18.9 °F 28.4 °F 93% 30.03 in 1.0 mi NE 16.1 mph - N/A   Mostly Cloudy
5:15 PM 30.2 °F 17.4 °F 28.4 °F 93% 30.03 in 1.0 mi NNE 20.7 mph 25.3 mph N/A   Mostly Cloudy
5:35 PM 30.2 °F 17.4 °F 28.4 °F 93% 30.04 in 1.0 mi NNE 20.7 mph - N/A   Mostly Cloudy
5:55 PM 30.2 °F 16.8 °F 28.4 °F 93% 30.04 in 1.2 mi NNE 23.0 mph 26.5 mph N/A   Mostly Cloudy
6:15 PM 30.2 °F 17.8 °F 28.4 °F 93% 30.04 in 1.2 mi NNE 19.6 mph - N/A   Scattered Clouds
6:35 PM 28.4 °F 16.6 °F 28.4 °F 100% 30.05 in 1.5 mi NE 16.1 mph - N/A   Scattered Clouds
6:55 PM 30.2 °F 17.8 °F 28.4 °F 93% 30.06 in 2.0 mi NNE 19.6 mph - N/A   Scattered Clouds
7:15 PM 30.2 °F 19.8 °F 28.4 °F 93% 30.06 in 2.0 mi NNE 13.8 mph - N/A   Mostly Cloudy
7:35 PM 28.4 °F 16.2 °F 28.4 °F 100% 30.06 in 2.5 mi NNE 17.3 mph - N/A   Scattered Clouds
7:55 PM 28.4 °F 17.0 °F 28.4 °F 100% 30.06 in 1.0 mi NNE 15.0 mph 20.7 mph N/A   Mostly Cloudy
8:15 PM 28.4 °F 16.6 °F 28.4 °F 100% 30.06 in 2.5 mi NNE 16.1 mph - N/A   Mostly Cloudy
8:35 PM 28.4 °F 16.6 °F 28.4 °F 100% 30.06 in 3.0 mi NNE 16.1 mph - N/A   Mostly Cloudy
9:15 PM 30.2 °F 18.5 °F 28.4 °F 93% 30.07 in 3.0 mi North 17.3 mph - N/A   Mostly Cloudy
9:35 PM 30.2 °F 17.1 °F 28.4 °F 93% 30.07 in 2.0 mi North 21.9 mph - N/A   Overcast
9:55 PM 28.4 °F 14.4 °F 28.4 °F 100% 30.06 in 1.5 mi North 23.0 mph 31.1 mph N/A   Overcast
10:15 PM 28.4 °F 14.4 °F 26.6 °F 93% 30.06 in 2.5 mi North 23.0 mph 31.1 mph N/A   Scattered Clouds
10:35 PM 28.4 °F 14.1 °F 26.6 °F 93% 30.06 in 5.0 mi North 24.2 mph 31.1 mph N/A Snow Light Snow
10:55 PM 28.4 °F 15.1 °F 26.6 °F 93% 30.07 in 7.0 mi North 20.7 mph 34.5 mph N/A Rain Light Freezing Rain
11:15 PM 28.4 °F 15.1 °F 26.6 °F 93% 30.08 in 3.0 mi North 20.7 mph 32.2 mph N/A Snow Light Snow
11:35 PM 26.6 °F 12.4 °F 24.8 °F 93% 30.09 in 3.0 mi North 21.9 mph 31.1 mph N/A Snow Light Snow
11:55 PM 26.6 °F 13.1 °F 24.8 °F 93% 30.09 in 5.0 mi North 19.6 mph 28.8 mph N/A Snow Light Snow